Regional Weather Roundup
Issued by NWS

Home | Current Version | Previous Version | Text Only | Print | Product List | Glossary On
Versions: 1 2 3 4 5 6 7 8 9 10 11 12 13 14 15 16 17 18 19 20 21 22 23 24 25 26 27 28 29 30 31 32 33 34 35 36 37 38 39 40 41 42 43 44 45 46 47 48 49 50
000
ASUS43 KTOP 012308
RWRKS

WEATHER ROUNDUP FOR KANSAS
NATIONAL WEATHER SERVICE GOODLAND KS
600 PM CDT MON SEP 01 2014

NOTE:  "FAIR" INDICATES FEW OR NO CLOUDS BELOW 12,000 FEET WITH NO
SIGNIFICANT WEATHER AND/OR OBSTRUCTIONS TO VISIBILITY.

KSZ001>006-013>018-027>032-041>047-020000-
NORTHWEST KANSAS

CITY           SKY/WX    TMP DP  RH WIND       PRES   REMARKS
GOODLAND       SUNNY     81  45  28 E7        29.94F
HAYS           SUNNY     82  59  44 E7        29.90S
HILL CITY      SUNNY     81  55  40 E6        29.92S
RUSSELL        SUNNY     80  63  55 E8        29.89S
$$

KSZ061>065-074>080-084>089-020000-
SOUTHWEST KANSAS

CITY           SKY/WX    TMP DP  RH WIND       PRES   REMARKS
DODGE CITY     SUNNY     81  63  54 NE14      29.90S
ELKHART          N/A     87  57  35 SE6         N/A
GARDEN CITY    SUNNY     82  58  43 E10G20    29.91R
GREAT BEND     PTSUNNY   75  64  69 NE12      29.90S
LIBERAL        MOSUNNY   82  63  51 E12       29.92R
PRATT          MOSUNNY   79  64  61 NE16      29.89R
$$

KSZ066>073-081>083-090>101-020000-
SOUTHEAST KANSAS

CITY           SKY/WX    TMP DP  RH WIND       PRES   REMARKS
CHANUTE        CLOUDY    82  71  69 E3        29.84F
COFFEYVILLE    PTSUNNY   86  74  67 NE12      29.79F THUNDER
HUTCHINSON     CLOUDY    78  67  68 NE8G18    29.86S
MEDICINE LODGE   N/A     87  70  56 NE18G25   29.80R
NEWTON         CLOUDY    77  66  69 NE7       29.89S
PARSONS        PTSUNNY   85  72  65 NE5       29.84F
WICHITA INTL   PTSUNNY   84  70  62 NE18      29.81S
WICHITA JABRA  PTSUNNY   82  70  66 NE16      29.82S
WICHITA MCCONL PTSUNNY   85  72  63 NE13      29.81F
WINFIELD       MOSUNNY   88  72  58 SE9       29.79F
$$

KSZ007>012-019>026-033>040-048>060-102>105-020000-
NORTHEAST KANSAS

CITY           SKY/WX    TMP DP  RH WIND       PRES   REMARKS
CONCORDIA      MOSUNNY   79  59  50 N8        29.90R
EMPORIA        PTSUNNY   77  69  76 NE7       29.87S
LAWRENCE       CLOUDY   N/A N/A N/A CALM      29.88S
MANHATTAN      CLOUDY    79  66  64 CALM      29.87S
OLATHE IND     CLOUDY    77  67  71 S5        29.89S
OLATHE EXE     CLOUDY    76  67  73 W3        29.88S
SALINA         PTSUNNY   78  65  63 NE5       29.88F
TOPEKA BILLARD CLOUDY    80  68  66 CALM      29.88S
TOPEKA FORBES  CLOUDY    78  67  68 NE3       29.88S
$$



USA.gov is the U.S. government's official web portal to all federal, state and local government web resources and services.